Location: Wapato
(46.4478°N, 120.4212°W)
Time: 10:06:43
(UTC+00:00)

Injun/Solrad 3 - Pass Details

Date: 12 May 2026
Orbit: 867 x 989 km, 66.8° (Epoch: 10 June)

Event Time Altitude Azimuth Distance (km) Brightness Sun altitude
Rises 06:39:45 0° 326° (NNW) 3,654 12.3 -23.0°
Reaches altitude 10° 06:43:07 10° 344° (NNW) 2,723 11.5 -23.2°
Maximum altitude 06:47:38 20° 29° (NNE) 2,121 10.2 -23.5°
Drops below altitude 10° 06:52:10 10° 74° (ENE) 2,749 10.3 -23.7°
Sets 06:55:34 0° 92° (E) 3,698 10.9 -23.9°
